Regional Weather Roundup
Issued by NWS

Home | Current Version | Previous Version | Text Only | Print | Product List | Glossary On
Versions: 1 2 3 4 5 6 7 8 9 10 11 12 13 14 15 16 17 18 19 20 21 22 23 24 25 26 27 28
000
ASUS45 KSLC 311410
RWRUT

UTAH REGIONAL WEATHER ROUNDUP
NATIONAL WEATHER SERVICE SALT LAKE CITY UT
800 AM MDT FRI OCT 31 2014

UTZ001>011-023>025-311500-

NORTHERN UTAH

CITY           SKY/WX    TMP DP  RH WIND       PRES   REMARKS
BRIGHAM CITY   MOCLDY    39  32  73 NE5       30.01S
HILL AFB       PTCLDY    51  23  33 E15       30.01F
LOGAN          CLEAR     33  29  85 CALM      30.02S
OGDEN          PTCLDY    50  25  37 S7        29.99F
PROVO AIRPORT  NOT AVBL
SALT LAKE CITY MOCLDY    57  23  26 SE18      29.99F
VERNAL         MOCLDY    34  26  72 W3        30.20F
WENDOVER       CLOUDY    43  27  52 CALM      29.99F
HEBER CITY     MOCLDY    30  27  86 CALM      30.12F
WEST JORDAN    CLEAR     52  30  43 CALM      30.02F

$$

UTZ012>022-026-027-311500-

SOUTHERN/CENTRAL UTAH

CITY           SKY/WX    TMP DP  RH WIND       PRES   REMARKS
BLANDING       PTCLDY    49  20  32 SE3       30.34S
BRYCE CANYON   FLURRIES  26  18  71 SW5       30.25F WCI  20
CEDAR CITY     PTCLDY    50  22  33 SW6       30.08S
DELTA          MOCLDY    42  22  44 E8        30.04F
HANKSVILLE       N/A     34  18  51 CALM      30.19S
MILFORD        MOCLDY    39  23  52 S8        30.05F WCI  33
MOAB/CYNLANDS  CLEAR     35  18  49 CALM      30.15S
PRICE          PTCLDY    38  20  48 NE5       30.19S WCI  34
ST GEORGE      PTSUNNY   54  25  32 CALM      30.02F
KANAB            N/A     46  21  36 NW13      30.15S

$$

REGIONAL REPORTS     COLORADO/ARIZONA

CITY           SKY/WX    TMP DP  RH WIND       PRES   REMARKS
CRAIG, CO      CLEAR     24  20  84 CALM      30.24S
GRAND JUNCTION MOCLDY    37  26  64 E6        30.19S WCI  32
RIFLE          PTCLDY    32  23  69 SW5       30.25F WCI  27
MONTROSE       PTCLDY    34  23  64 SE6       30.27S WCI  29
CORTEZ         CLEAR     51  22  31 VRB5      30.28S
PAGE, AZ       MOCLDY    50  21  32 W3        30.14S
GRAND CANYON   CLOUDY    36  21  54 CALM      30.21F
KINGMAN        PTCLDY    55  34  45 SE10      30.00F
FLAGSTAFF      MOCLDY    40  29  64 CALM      30.25S

$$

REGIONAL REPORTS    NEVADA/IDAHO/WYOMING

CITY           SKY/WX    TMP DP  RH WIND       PRES   REMARKS
LAS VEGAS, NV  PTCLDY    62  31  31 SW9       29.89S
ELY            CLEAR     44  26  49 S12       30.04F
ELKO           PTCLDY    39  21  48 CALM      29.93S
POCATELLO, ID  CLEAR     40  31  70 SE6       29.95F
BURLEY         CLOUDY    43  31  62 CALM      29.90F
EVANSTON, WY   PTCLDY    40  22  48 E6        30.15F
ROCK SPRINGS   MOCLDY    34  24  67 E5        30.17F WCI  30
KEMMERER       PTCLDY    34  27  75 N3        30.17F

$$



USA.gov is the U.S. government's official web portal to all federal, state and local government web resources and services.